This demonstration page uses our WeatherBlox Daily Observations layout. Learn more.

Left ArrowRight Arrow

Hourly Observations for May 7, 2022

Temp ( °F °C ) Dew Point ( °F °C ) Humidity (%) Winds ( mph kmh ) Pressure ( in mb ) Visibility ( mi km ) Precip ( " mm )
12:52 am 00:52 Clear 51 10.6 49 9.4 92 92 Calm 29.88 1012 10 16 0.00 0.00
1:52 am 01:52 Clear 49 9.4 48 8.9 97 97 Calm 29.88 1012 10 16 0.00 0.00
2:52 am 02:52 Clear 49 9.4 48 8.9 97 97 Calm 29.87 1011 10 16 0.00 0.00
3:52 am 03:52 Partly Cloudy 51 10.6 50 10 96 96 NNE 5 7 29.87 1012 10 16 0.00 0.00
4:01 am 04:01 Mostly Cloudy 51 10.6 50 10 96 96 NNE 5 7 29.90 1012 10 16 0.00 0.00
4:30 am 04:30 Mostly Cloudy 50 10 49 9.4 96 96 Calm 29.90 1013 10 16 0.00 0.00
4:52 am 04:52 Clear 51 10.6 49 9.4 92 92 NE 6 9 29.87 1012 10 16 0.00 0.00
5:52 am 05:52 Clear 50 10 48 8.9 93 93 ENE 7 11 29.88 1012 10 16 0.00 0.00
6:52 am 06:52 Sunny 50 10 48 8.9 93 93 NE 8 13 29.91 1013 10 16 0.00 0.00
7:52 am 07:52 Sunny 53 11.7 49 9.4 86 86 NE 8 13 29.92 1013 10 16 0.00 0.00
8:52 am 08:52 Sunny 56 13.3 49 9.4 77 77 ENE 8 13 29.93 1014 10 16 0.00 0.00
9:52 am 09:52 Sunny 60 15.6 50 10 70 70 NE 7 11 29.94 1014 10 16 0.00 0.00
10:52 am 10:52 Sunny 63 17.2 50 10 63 63 NE 8 13 29.92 1013 10 16 0.00 0.00
11:52 am 11:52 Sunny 66 18.9 51 10.6 59 59 E 7 11 29.91 1013 10 16 0.00 0.00
12:52 pm 12:52 Sunny 69 20.6 51 10.6 53 53 ESE 8 13 29.89 1012 10 16 0.00 0.00
1:52 pm 13:52 Sunny 72 22.2 52 11.1 50 50 ESE 8 13 29.88 1012 10 16 0.00 0.00
2:52 pm 14:52 Sunny 73 22.8 52 11.1 48 48 ESE 6 9 29.86 1011 10 16 0.00 0.00
3:52 pm 15:52 Sunny 74 23.3 51 10.6 45 45 E 10 17 29.83 1010 10 16 0.00 0.00
4:52 pm 16:52 Sunny 75 23.9 53 11.7 46 46 ESE 9 15 29.81 1010 10 16 0.00 0.00
5:52 pm 17:52 Sunny 74 23.3 51 10.6 45 45 SE 8 13 29.80 1009 10 16 0.00 0.00
6:52 pm 18:52 Sunny 73 22.8 52 11.1 48 48 SSE 8 13 29.79 1009 10 16 0.00 0.00
7:52 pm 19:52 Sunny 70 21.1 51 10.6 51 51 ESE 9 15 29.79 1009 10 16 0.00 0.00
8:52 pm 20:52 Clear 67 19.4 52 11.1 59 59 SE 12 19 29.78 1008 10 16 0.00 0.00
9:52 pm 21:52 Clear 66 18.9 52 11.1 61 61 SE 14 22 29.77 1008 10 16 0.00 0.00
10:52 pm 22:52 Clear 64 17.8 50 10 60 60 SE 14 22 29.76 1008 10 16 0.00 0.00
11:52 pm 23:52 Clear 64 17.8 50 10 60 60 SE 16 26 29.72 1007 10 16 0.00 0.00

Powered by AerisWeather